(338861) = 2003 YH116 = 2012 QV9

Discovered at Socorro on 2003-12-22 by LINEAR.

Orbit

Orbit type: Main Belt

Note: WebGL enabled browser required.

epoch2023-09-13.0
epoch JD2460200.5
perihelion date2020-03-16.69461
perihelion JD2458925.19461
argument of perihelion (°)187.26630
ascending node (°)306.12708
inclination (°)10.43987
eccentricity0.0417913
perihelion distance (AU)2.9228599
Tisserand w.r.t. Jupiter3.2
ΔV w.r.t. Earth (km/sec)11.1
semimajor axis (AU)3.0503376
mean anomaly (°)235.93707
mean daily motion (°/day)0.18500440
aphelion distance (AU)3.178
period (years)5.33
P-vector [x]-0.68531224
P-vector [y]0.67694134
P-vector [z]0.26850987
Q-vector [x]-0.71339039
Q-vector [y]-0.54993080
Q-vector [z]-0.43433888
absolute magnitude15.51
phase slope0.15
uncertainty0
referenceMPO 779413
observations used481
oppositions13
arc length (days)7267
first opposition used2003
last opposition used2023
residual rms (arc-secs)0.69
perturbers coarse indicatorM-v
perturbers precise indicator003Ek
first observation date used2003-12-21.0
last observation date used2023-11-13.0
computer nameMPCLINUX
JD of orbit computation2456760.691222
perihelion JD uncertainty (days)6.6222E-04
argument of perihelion uncertainty (°)1.0426E-04
ascending node uncertainty (°)2.1061E-05
inclination uncertainty (°)5.5375E-06
eccentricity uncertainty 1.8529E-07
perihelion distance uncertainty (AU)6.1716E-07
Minimum Orbit Intersection Distances (in AU)
for orbit epoch: 2460200.5, reference: E2023-VO2
Mercury2.57622
Venus2.20621
Earth1.93627
Mars1.27478
Jupiter1.87813
Saturn6.13081
Uranus15.5343
Neptune26.8023

Observations

512 total observations over interval: 2003 12 21.297030 – 2023 11 13.299637
These data are available for download (format description).

Date (UT) J2000 RA J2000 Dec Magn Location Ref
2003 12 21.297030 08 29 01.730 +22 38 02.75 20.07 V 645 – Apache Point-Sloan Digital Sky Survey MPS 175538
2003 12 21.300502 08 29 01.609 +22 38 02.67 20.92   645 – Apache Point-Sloan Digital Sky Survey MPS 175538
2003 12 22.33976 08 28 26.26 +22 37 44.6 19.8   704 – Lincoln Laboratory ETS, New Mexico MPS 96411
2003 12 22.35275 08 28 25.74 +22 37 44.7 19.9   704 – Lincoln Laboratory ETS, New Mexico MPS 96411
2003 12 22.36598 08 28 25.26 +22 37 44.3 20.1   704 – Lincoln Laboratory ETS, New Mexico MPS 96411
2003 12 22.37903 08 28 24.77 +22 37 45.4 20.4   704 – Lincoln Laboratory ETS, New Mexico MPS 96411
2003 12 22.39195 08 28 24.27 +22 37 43.7 20.1   704 – Lincoln Laboratory ETS, New Mexico MPS 96411
2003 12 27.34695 08 25 14.65 +22 36 37.6 19.9   704 – Lincoln Laboratory ETS, New Mexico MPS 95920
2003 12 27.36148 08 25 14.04 +22 36 37.7 19.7   704 – Lincoln Laboratory ETS, New Mexico MPS 95920
2003 12 27.37523 08 25 13.44 +22 36 37.7 20.0   704 – Lincoln Laboratory ETS, New Mexico MPS 95920
2003 12 27.38837 08 25 12.80 +22 36 36.4 20.0   704 – Lincoln Laboratory ETS, New Mexico MPS 95920
2003 12 27.40142 08 25 12.23 +22 36 37.3 20.2   704 – Lincoln Laboratory ETS, New Mexico MPS 95920
2003 12 28.51039 08 24 25.07 +22 36 26.7 20.3 V 691 – Steward Observatory, Kitt Peak-Spacewatch MPS 95920
2003 12 28.52353 08 24 24.49 +22 36 26.4 20.4 V 691 – Steward Observatory, Kitt Peak-Spacewatch MPS 95920
2003 12 28.53676 08 24 23.90 +22 36 26.0 20.5 V 691 – Steward Observatory, Kitt Peak-Spacewatch MPS 95920
2004 01 15.45039 08 08 55.90 +22 33 34.6 19.8 V 691 – Steward Observatory, Kitt Peak-Spacewatch MPS 96654
2004 01 15.47692 08 08 54.34 +22 33 34.1 19.8 V 691 – Steward Observatory, Kitt Peak-Spacewatch MPS 96654
2004 01 15.50405 08 08 52.76 +22 33 33.3 19.8 V 691 – Steward Observatory, Kitt Peak-Spacewatch MPS 96654
2004 01 19.18834 08 05 19.16 +22 32 07.9 18.9 R 699 – Lowell Observatory-LONEOS MPS 97061
2004 01 19.20841 08 05 17.95 +22 32 07.2   699 – Lowell Observatory-LONEOS MPS 97061
2004 01 19.22847 08 05 16.73 +22 32 07.7   699 – Lowell Observatory-LONEOS MPS 97061
2004 01 19.24856 08 05 15.50 +22 32 06.4   699 – Lowell Observatory-LONEOS MPS 97061
2004 01 22.28901 08 02 18.11 +22 30 30.4 19.6   704 – Lincoln Laboratory ETS, New Mexico MPS 97061
2004 01 22.30187 08 02 17.35 +22 30 29.8 19.7   704 – Lincoln Laboratory ETS, New Mexico MPS 97061
2004 01 22.31466 08 02 16.60 +22 30 29.2 19.9   704 – Lincoln Laboratory ETS, New Mexico MPS 97061
2004 01 22.32767 08 02 15.77 +22 30 29.1 19.8   704 – Lincoln Laboratory ETS, New Mexico MPS 97061
2004 01 22.34060 08 02 15.01 +22 30 27.6 20.0   704 – Lincoln Laboratory ETS, New Mexico MPS 97061
2004 01 26.18761 07 58 33.28 +22 27 51.9 19.3 R 699 – Lowell Observatory-LONEOS MPS 97858
2004 01 26.20768 07 58 32.08 +22 27 50.8   699 – Lowell Observatory-LONEOS MPS 97858
2004 01 26.22774 07 58 30.99 +22 27 48.4   699 – Lowell Observatory-LONEOS MPS 97858
2004 01 26.24777 07 58 29.71 +22 27 48.3   699 – Lowell Observatory-LONEOS MPS 97858
2004 01 27.36758 07 57 25.96 +22 26 54.4 19.6 V 691 – Steward Observatory, Kitt Peak-Spacewatch MPS 97858
2004 01 27.39659 07 57 24.28 +22 26 52.7 19.6 V 691 – Steward Observatory, Kitt Peak-Spacewatch MPS 97858
2004 01 27.42767 07 57 22.48 +22 26 50.9 19.8 V 691 – Steward Observatory, Kitt Peak-Spacewatch MPS 97858
2004 02 11.19259 07 44 54.36 +22 08 46.0 19.5 R 699 – Lowell Observatory-LONEOS MPS 98818
2004 02 11.21286 07 44 53.50 +22 08 43.4   699 – Lowell Observatory-LONEOS MPS 98818
2004 02 11.23315 07 44 52.51 +22 08 42.7   699 – Lowell Observatory-LONEOS MPS 98818
2004 02 11.25339 07 44 51.55 +22 08 40.1   699 – Lowell Observatory-LONEOS MPS 98818
2004 02 16.10229 07 41 38.62 +22 00 18.3 20.7 V 691 – Steward Observatory, Kitt Peak-Spacewatch MPS 98818
2004 02 16.12941 07 41 37.60 +22 00 15.5 20.5 V 691 – Steward Observatory, Kitt Peak-Spacewatch MPS 98818
2004 02 16.15685 07 41 36.56 +22 00 12.3 20.4 V 691 – Steward Observatory, Kitt Peak-Spacewatch MPS 98818
2005 05 16.17857 13 06 30.73 -23 15 53.0 20.3   644 – Palomar Mountain/NEAT MPS 430061
2005 05 16.20094 13 06 30.12 -23 15 45.0 20.2   644 – Palomar Mountain/NEAT MPS 430061
2005 05 16.22599 13 06 29.43 -23 15 36.6 20.5   644 – Palomar Mountain/NEAT MPS 430061
2007 10 09.29837 23 54 42.47 +14 04 11.1 20.2 r 699 – Lowell Observatory-LONEOS MPS 430061
2007 10 09.32032 23 54 41.47 +14 04 04.3   699 – Lowell Observatory-LONEOS MPS 430061
2007 10 09.34226 23 54 40.48 +14 03 59.1   699 – Lowell Observatory-LONEOS MPS 430061
2007 10 09.36421 23 54 39.41 +14 03 54.3   699 – Lowell Observatory-LONEOS MPS 430061
2012 08 19.93098 22 49 39.55 +01 25 23.1 20.2 V D03 – Rantiga Osservatorio, Tincana MPS 430199
2012 08 19.93854 22 49 39.17 +01 25 22.5 20.3 V D03 – Rantiga Osservatorio, Tincana MPS 430199
2012 08 19.94594 22 49 38.83 +01 25 21.2 20.7 V D03 – Rantiga Osservatorio, Tincana MPS 430199
2012 08 19.95337 22 49 38.42 +01 25 21.1 20.6 V D03 – Rantiga Osservatorio, Tincana MPS 430199
2012 08 20.93543 22 48 53.88 +01 24 02.9 19.8 V D03 – Rantiga Osservatorio, Tincana MPS 430199
2012 08 20.94267 22 48 53.57 +01 24 03.1 20.0 V D03 – Rantiga Osservatorio, Tincana MPS 430199
2012 08 20.94988 22 48 53.21 +01 24 01.4 20.8 V D03 – Rantiga Osservatorio, Tincana MPS 430199
2012 08 20.95706 22 48 52.88 +01 24 01.5 19.8 V D03 – Rantiga Osservatorio, Tincana MPS 430199
2012 10 05.397759 22 17 02.434 -00 36 16.95 20.3 z F51 – Pan-STARRS 1, Haleakala MPS 434105
2012 10 05.400722 22 17 02.360 -00 36 17.38 20.2 z F51 – Pan-STARRS 1, Haleakala MPS 434105
2012 10 05.403696 22 17 02.282 -00 36 17.88 20.2 z F51 – Pan-STARRS 1, Haleakala MPS 434105
2012 10 05.406659 22 17 02.204 -00 36 18.29 20.2 z F51 – Pan-STARRS 1, Haleakala MPS 434105
2012 10 05.409621 22 17 02.126 -00 36 18.78 20.2 z F51 – Pan-STARRS 1, Haleakala MPS 434105
2012 10 05.412584 22 17 02.049 -00 36 19.17 20.2 z F51 – Pan-STARRS 1, Haleakala MPS 434105
2012 10 06.232112 22 16 42.391 -00 38 24.92 20.9 g F51 – Pan-STARRS 1, Haleakala MPS 434105
2012 10 06.233599 22 16 42.358 -00 38 25.14 21.1 g F51 – Pan-STARRS 1, Haleakala MPS 434105
2012 10 06.235088 22 16 42.315 -00 38 25.32 21.0 g F51 – Pan-STARRS 1, Haleakala MPS 434105
2012 10 06.236583 22 16 42.286 -00 38 25.53 20.9 g F51 – Pan-STARRS 1, Haleakala MPS 434105
2012 10 06.238071 22 16 42.246 -00 38 25.86 21.0 g F51 – Pan-STARRS 1, Haleakala MPS 434105
2012 10 06.239567 22 16 42.211 -00 38 26.03 20.7 g F51 – Pan-STARRS 1, Haleakala MPS 434105
2012 10 06.242547 22 16 42.137 -00 38 26.56 21.0 g F51 – Pan-STARRS 1, Haleakala MPS 434105
2012 10 06.244597 22 16 42.082 -00 38 26.91 20.4 r F51 – Pan-STARRS 1, Haleakala MPS 434105
2012 10 06.246082 22 16 42.051 -00 38 27.07 20.4 r F51 – Pan-STARRS 1, Haleakala MPS 434105
2012 10 06.247573 22 16 42.013 -00 38 27.25 20.4 r F51 – Pan-STARRS 1, Haleakala MPS 434105
2012 10 06.249067 22 16 41.970 -00 38 27.45 20.3 r F51 – Pan-STARRS 1, Haleakala MPS 434105
2012 10 06.252044 22 16 41.895 -00 38 27.95 20.4 r F51 – Pan-STARRS 1, Haleakala MPS 434105
2012 10 06.253554 22 16 41.854 -00 38 28.15 20.4 r F51 – Pan-STARRS 1, Haleakala MPS 434105
2012 10 06.255050 22 16 41.821 -00 38 28.40 20.3 r F51 – Pan-STARRS 1, Haleakala MPS 434105
2012 10 07.373262 22 16 15.828 -00 41 15.79 20.2 i F51 – Pan-STARRS 1, Haleakala MPS 434105
2012 10 07.377263 22 16 15.734 -00 41 16.38 20.3 i F51 – Pan-STARRS 1, Haleakala MPS 434105
2012 10 07.380216 22 16 15.664 -00 41 16.84 20.2 i F51 – Pan-STARRS 1, Haleakala MPS 434105
2012 10 07.383171 22 16 15.595 -00 41 17.26 20.3 i F51 – Pan-STARRS 1, Haleakala MPS 434105
2012 10 07.386156 22 16 15.523 -00 41 17.71 20.2 i F51 – Pan-STARRS 1, Haleakala MPS 434105
2012 10 07.389128 22 16 15.453 -00 41 18.12 20.2 i F51 – Pan-STARRS 1, Haleakala MPS 434105
2012 10 07.392094 22 16 15.385 -00 41 18.55 20.4 i F51 – Pan-STARRS 1, Haleakala MPS 434105
2012 10 07.395056 22 16 15.314 -00 41 19.04 20.3 i F51 – Pan-STARRS 1, Haleakala MPS 434105
2013 11 25.30872 03 45 36.652 +34 09 19.86 19.8 r F51 – Pan-STARRS 1, Haleakala MPS 489877
2013 11 25.32022 03 45 35.968 +34 09 16.99 19.9 r F51 – Pan-STARRS 1, Haleakala MPS 489877
